{"data":{"norad_id":61931,"intl_designator":"2024-207V","name":"STARLINK-32420","alt_names":[],"object_type":"PAYLOAD","status":"ACTIVE","operator":null,"country":"US","launch_date":"2024-11-11","launch_site_code":"AFETR","launch_vehicle":null,"mission":null,"orbit_class":"UNKNOWN","rcs_meters":null,"size_class":null,"mass_kg":null,"dimensions":null,"purposes":["comms"],"wikipedia_slug":null,"has_3d_model":false,"image_url":null,"decayed_at":null,"tle_current":{"epoch":"2026-09-21T07:32:55.969152Z","epoch_age_seconds":115269,"freshness":"FRESH","line1":"1 61931U 24207V   26264.31453668  .00009519  00000+0  35487-3 0  9994","line2":"2 61931  43.0024 256.6749 0002026 282.3996  77.6629 15.27589969104646","mean_motion":15.27589969,"eccentricity":0.0002026,"inclination_deg":43.0024,"raan_deg":256.6749,"arg_perigee_deg":282.3996,"mean_anomaly_deg":77.6629,"bstar":0.00035487,"rev_number":10464,"period_min":94.266133532067,"perigee_km":481.62917517434,"apogee_km":484.40931568499,"semimajor_km":6861.1562454297,"source":"CELESTRAK","updated_at":"2026-09-22T09:00:49.452503Z"}}}